| time (UTC) | temp C | wind direction | speed KPH | gust KPH | rain 1hr cm | rain 24hr cm | rain mn cm | humidity % | barometer mb |
| 20260509064506 | 6 | 175 | 11.3 | 0.0 | 0.00 | 0.00 | 0.00 | 52 | 977.3 |
| 20260509063015 | 6 | 174 | 12.9 | 0.0 | 0.00 | 0.00 | 0.00 | 56 | 976.9 |
| 20260509061506 | 6 | 172 | 11.3 | 0.0 | 0.00 | 0.00 | 0.00 | 56 | 976.9 |
| 20260509060028 | 6 | 165 | 9.7 | 0.0 | 0.00 | 0.00 | 0.00 | 56 | 976.9 |
| 20260509054506 | 6 | 169 | 8.0 | 0.0 | 0.00 | 0.00 | 0.00 | 49 | 978.4 |
| 20260509053015 | 6 | 160 | 11.3 | 0.0 | 0.00 | 0.00 | 0.00 | 51 | 977.8 |
| 20260509051505 | 7 | 162 | 8.0 | 0.0 | 0.00 | 0.00 | 0.00 | 51 | 977.8 |
| 20260509050028 | 7 | 167 | 8.0 | 0.0 | 0.00 | 0.00 | 0.00 | 51 | 977.8 |
| 20260509044506 | 7 | 161 | 8.0 | 0.0 | 0.00 | 0.00 | 0.00 | 49 | 978.9 |
| 20260509043015 | 7 | 169 | 8.0 | 0.0 | 0.00 | 0.00 | 0.00 | 48 | 977.6 |
| 20260509041506 | 8 | 169 | 9.7 | 0.0 | 0.00 | 0.00 | 0.00 | 48 | 977.6 |
| 20260509040026 | 8 | 163 | 9.7 | 0.0 | 0.00 | 0.00 | 0.00 | 48 | 977.6 |
| 20260509034506 | 8 | 178 | 9.7 | 0.0 | 0.00 | 0.00 | 0.00 | 43 | 978.3 |
| 20260509033015 | 8 | 180 | 8.0 | 0.0 | 0.00 | 0.00 | 0.00 | 39 | 979.0 |
| 20260509031505 | 8 | 166 | 8.0 | 0.0 | 0.00 | 0.00 | 0.00 | 39 | 979.0 |
| 20260509030026 | 8 | 162 | 8.0 | 0.0 | 0.00 | 0.00 | 0.00 | 39 | 979.0 |
| 20260509024505 | 9 | 162 | 8.0 | 0.0 | 0.00 | 0.00 | 0.00 | 30 | 979.6 |
| 20260509023021 | 10 | 175 | 8.0 | 0.0 | 0.00 | 0.00 | 0.00 | 32 | 979.4 |
| 20260509021505 | 10 | 191 | 8.0 | 0.0 | 0.00 | 0.00 | 0.00 | 32 | 979.3 |
| 20260509020025 | 10 | 195 | 9.7 | 0.0 | 0.00 | 0.00 | 0.00 | 32 | 979.3 |
| 20260509014505 | 10 | 201 | 8.0 | 0.0 | 0.00 | 0.00 | 0.00 | 33 | 979.4 |
| 20260509013013 | 11 | 217 | 6.4 | 0.0 | 0.00 | 0.00 | 0.00 | 33 | 979.4 |
| 20260509011505 | 11 | 232 | 4.8 | 0.0 | 0.00 | 0.00 | 0.00 | 33 | 979.4 |
| 20260509010023 | 12 | 242 | 6.4 | 0.0 | 0.00 | 0.00 | 0.00 | 33 | 979.4 |
| 20260509004505 | 12 | 245 | 6.4 | 0.0 | 0.00 | 0.00 | 0.00 | 25 | 979.2 |
| 20260509003020 | 12 | 248 | 6.4 | 0.0 | 0.00 | 0.00 | 0.00 | 27 | 980.4 |
| 20260509001504 | 13 | 256 | 6.4 | 0.0 | 0.00 | 0.00 | 0.00 | 27 | 980.4 |
| 20260509000023 | 14 | 259 | 8.0 | 0.0 | 0.00 | 0.00 | 0.00 | 27 | 980.4 |
| 20260508234504 | 15 | 260 | 11.3 | 0.0 | 0.00 | 0.00 | 0.00 | 22 | 979.7 |
| 20260508233022 | 15 | 263 | 12.9 | 0.0 | 0.00 | 0.00 | 0.00 | 22 | 980.1 |
| 20260508231506 | 15 | 260 | 14.5 | 0.0 | 0.00 | 0.00 | 0.00 | 22 | 980.1 |
| 20260508230025 | 15 | 264 | 14.5 | 0.0 | 0.00 | 0.00 | 0.00 | 22 | 980.1 |
| 20260508224505 | 16 | 265 | 16.1 | 0.0 | 0.00 | 0.00 | 0.00 | 22 | 980.3 |
| 20260508223022 | 15 | 265 | 17.7 | 0.0 | 0.00 | 0.00 | 0.00 | 21 | 981.1 |
| 20260508221507 | 16 | 265 | 17.7 | 0.0 | 0.00 | 0.00 | 0.00 | 21 | 981.1 |
| 20260508220019 | 16 | 262 | 17.7 | 0.0 | 0.00 | 0.00 | 0.00 | 21 | 981.1 |
| 20260508214507 | 16 | 262 | 17.7 | 0.0 | 0.00 | 0.00 | 0.00 | 21 | 981.7 |
| 20260508213022 | 16 | 259 | 19.3 | 0.0 | 0.00 | 0.00 | 0.00 | 22 | 981.1 |
| 20260508211506 | 16 | 255 | 17.7 | 0.0 | 0.00 | 0.00 | 0.00 | 22 | 981.1 |
| 20260508210026 | 16 | 256 | 17.7 | 0.0 | 0.00 | 0.00 | 0.00 | 22 | 981.1 |
| 20260508204507 | 16 | 253 | 17.7 | 0.0 | 0.00 | 0.00 | 0.00 | 23 | 981.2 |
| 20260508203022 | 16 | 249 | 17.7 | 0.0 | 0.00 | 0.00 | 0.00 | 21 | 981.0 |
| 20260508201506 | 16 | 250 | 16.1 | 0.0 | 0.00 | 0.00 | 0.00 | 21 | 981.0 |
| 20260508200019 | 16 | 249 | 16.1 | 0.0 | 0.00 | 0.00 | 0.00 | 19 | 980.6 |
| 20260508194506 | 16 | 248 | 16.1 | 0.0 | 0.00 | 0.00 | 0.00 | 19 | 981.3 |
| 20260508193014 | 16 | 248 | 16.1 | 0.0 | 0.00 | 0.00 | 0.00 | 19 | 981.3 |
| 20260508191505 | 17 | 250 | 16.1 | 0.0 | 0.00 | 0.00 | 0.00 | 19 | 981.3 |
| 20260508190024 | 16 | 248 | 14.5 | 0.0 | 0.00 | 0.00 | 0.00 | 19 | 981.3 |
| 20260508184506 | 16 | 249 | 14.5 | 0.0 | 0.00 | 0.00 | 0.00 | 23 | 981.6 |
| 20260508183022 | 16 | 247 | 16.1 | 0.0 | 0.00 | 0.00 | 0.00 | 25 | 981.3 |
| 20260508181506 | 16 | 243 | 16.1 | 0.0 | 0.00 | 0.00 | 0.00 | 25 | 981.3 |
| 20260508180024 | 16 | 243 | 16.1 | 0.0 | 0.00 | 0.00 | 0.00 | 25 | 981.3 |
| 20260508174506 | 16 | 241 | 16.1 | 0.0 | 0.00 | 0.00 | 0.00 | 30 | 982.3 |
| 20260508173022 | 15 | 246 | 16.1 | 0.0 | 0.00 | 0.00 | 0.00 | 30 | 982.3 |
| 20260508171506 | 15 | 243 | 16.1 | 0.0 | 0.00 | 0.00 | 0.00 | 30 | 982.3 |
| 20260508170025 | 15 | 246 | 14.5 | 0.0 | 0.00 | 0.00 | 0.00 | 29 | 982.3 |
| 20260508164506 | 15 | 247 | 14.5 | 0.0 | 0.00 | 0.00 | 0.00 | 37 | 982.8 |
| 20260508163022 | 14 | 239 | 14.5 | 0.0 | 0.00 | 0.00 | 0.00 | 37 | 982.9 |
| 20260508161506 | 13 | 234 | 14.5 | 0.0 | 0.00 | 0.00 | 0.00 | 37 | 982.8 |
| 20260508160026 | 13 | 230 | 12.9 | 0.0 | 0.00 | 0.00 | 0.00 | 37 | 982.8 |
| 20260508154506 | 12 | 220 | 11.3 | 0.0 | 0.00 | 0.00 | 0.00 | 43 | 983.9 |
| 20260508153023 | 12 | 203 | 12.9 | 0.0 | 0.00 | 0.00 | 0.00 | 44 | 982.7 |
| 20260508151506 | 12 | 195 | 11.3 | 0.0 | 0.00 | 0.00 | 0.00 | 44 | 982.7 |
| 20260508150025 | 11 | 197 | 11.3 | 0.0 | 0.00 | 0.00 | 0.00 | 44 | 982.7 |
| 20260508144507 | 11 | 194 | 9.7 | 0.0 | 0.00 | 0.00 | 0.00 | 59 | 983.0 |
| 20260508143015 | 10 | 193 | 8.0 | 0.0 | 0.00 | 0.00 | 0.00 | 57 | 983.0 |
| 20260508141507 | 10 | 190 | 8.0 | 0.0 | 0.00 | 0.00 | 0.00 | 57 | 983.0 |
| 20260508140026 | 9 | 191 | 6.4 | 0.0 | 0.00 | 0.00 | 0.00 | 61 | 982.9 |
| 20260508134506 | 8 | 190 | 8.0 | 0.0 | 0.00 | 0.00 | 0.00 | 72 | 982.7 |
| 20260508133015 | 8 | 191 | 8.0 | 0.0 | 0.00 | 0.00 | 0.00 | 72 | 982.7 |
| 20260508131507 | 7 | 190 | 9.7 | 0.0 | 0.00 | 0.00 | 0.00 | 72 | 982.7 |
| 20260508130026 | 6 | 184 | 9.7 | 0.0 | 0.00 | 0.00 | 0.00 | 72 | 982.7 |
| 20260508124506 | 5 | 180 | 8.0 | 0.0 | 0.00 | 0.00 | 0.00 | 83 | 982.2 |
| 20260508123016 | 5 | 188 | 6.4 | 0.0 | 0.00 | 0.00 | 0.00 | 82 | 982.5 |
| 20260508121506 | 4 | 184 | 4.8 | 0.0 | 0.00 | 0.00 | 0.00 | 82 | 982.5 |
| 20260508120029 | 3 | 167 | 3.2 | 0.0 | 0.00 | 0.00 | 0.00 | 82 | 982.5 |
| 20260508114506 | 2 | 163 | 3.2 | 0.0 | 0.00 | 0.00 | 0.00 | 82 | 982.1 |
| 20260508113024 | 2 | 160 | 3.2 | 0.0 | 0.00 | 0.00 | 0.00 | 79 | 982.8 |
| 20260508111506 | 2 | 143 | 4.8 | 0.0 | 0.00 | 0.00 | 0.00 | 79 | 982.8 |
| 20260508110019 | 1 | 137 | 4.8 | 0.0 | 0.00 | 0.00 | 0.00 | 79 | 982.8 |
| 20260508104509 | 1 | 129 | 4.8 | 0.0 | 0.00 | 0.00 | 0.00 | 78 | 981.9 |
| 20260508103023 | 1 | 114 | 3.2 | 0.0 | 0.00 | 0.00 | 0.00 | 77 | 982.9 |
| 20260508101509 | 2 | 110 | 3.2 | 0.0 | 0.00 | 0.00 | 0.00 | 77 | 982.9 |
| 20260508100019 | 2 | 110 | 3.2 | 0.0 | 0.00 | 0.00 | 0.00 | 77 | 982.9 |
| 20260508094508 | 2 | 95 | 3.2 | 0.0 | 0.00 | 0.00 | 0.00 | 78 | 982.2 |
| 20260508093015 | 2 | 129 | 4.8 | 0.0 | 0.00 | 0.00 | 0.00 | 81 | 983.0 |
| 20260508091508 | 2 | 157 | 3.2 | 0.0 | 0.00 | 0.00 | 0.00 | 81 | 983.0 |
| 20260508090025 | 2 | 158 | 4.8 | 0.0 | 0.00 | 0.00 | 0.00 | 81 | 983.0 |
| 20260508084508 | 2 | 170 | 4.8 | 0.0 | 0.00 | 0.00 | 0.00 | 74 | 982.6 |
| 20260508083023 | 2 | 166 | 4.8 | 0.0 | 0.00 | 0.00 | 0.00 | 75 | 982.3 |
| 20260508081508 | 2 | 164 | 4.8 | 0.0 | 0.00 | 0.00 | 0.00 | 75 | 982.3 |
| 20260508080026 | 3 | 163 | 4.8 | 0.0 | 0.00 | 0.00 | 0.00 | 75 | 982.3 |
| 20260508074508 | 3 | 167 | 4.8 | 0.0 | 0.00 | 0.00 | 0.00 | 67 | 983.0 |
| 20260508073023 | 3 | 171 | 6.4 | 0.0 | 0.00 | 0.00 | 0.00 | 67 | 983.0 |
| 20260508071507 | 3 | 180 | 6.4 | 0.0 | 0.00 | 0.00 | 0.00 | 67 | 983.0 |
| 20260508070026 | 3 | 177 | 6.4 | 0.0 | 0.00 | 0.00 | 0.00 | 67 | 983.0 |